Tracking 28126 objects as of 1-Oct-2023
HD Live streaming from Space Station
objects crossing your sky now

DIRECTV 3 (DBS/NIMIQ 3)

Track DIRECTV 3 (DBS/NIMIQ 3) now!
DIRECTV 3 (DBS/NIMIQ 3) is classified as:


NORAD ID: 23598
Int'l Code: 1995-029A
Perigee: 36,137.7 km
Apogee: 36,169.0 km
Inclination: 10.3 °
Period: 1,454.5 minutes
Semi major axis: 42524 km
RCS: 31.8223 m2 (large)
Launch date: June 10, 1995
Source: United States (US)
Launch site: FRENCH GUIANA (FRGUI)

On-orbit backup; high resolution TV broadcast; USA and Western Hemispheric countries; 30 TV channels.
Your satellite tracking list
Your tracking list is empty




NASA's NSSDC Master Catalog

Two Line Element Set (TLE):
1 23598U 95029A   23272.80323137 -.00000202  00000-0  00000-0 0  9990
2 23598  10.2603  42.3535 0003677 121.3166 250.3582  0.99002445102951
Source of the keplerian elements: AFSPC